STARLINK-11179, 60190

Orbit data source: Space-Track

STARLINK-11179, 60190 is a payload satellite owned by SpaceX/Seattle (US) in LEO that was launched on Wed, 03 Jul 2024 UTC via an FALCON 9 launch vehicle from the Air Force Eastern Test Range (AFETR). Payload-class satellites include a variety of spacecraft equipped with specific instruments for various scientific and technological missions. These include communications satellites like Starlink; space stations such as the ISS; scientific satellites like the Hubble; Earth observation satellites from companies like Planet Labs, Umbra, and HawkEye 360; GPS; miniature CubeSats for education and research; and military/defense satellites.

Loading next visibility...
Identifier
60190, 2024-124H
Orbit
LEO
Country
Flag of USUS
Related business
Manufacturer
SpaceX/Seattle
Mission
Operational Commercial Communications
Bus & Motor
STARLINK V2MD, Unknown motor
Mass
960 kg wet, ~910 kg dry
Launch date (UTC)
2024-07-03 (2 years ago)
Launch vehicle
FALCON 9
Launch site
Air Force Eastern Test Range (AFETR)
Object type
Payload
Rocket body
Debris
Shape & HBR
Box + 2 Pan, 18.1 m
Radar Cross Section
36.964 m², Large (>1 m²)

Expand to show TLE details & history
Last TLE update: 7 hours ago

TLE from 7 hours ago
0 STARLINK-11179
1 60190U 24124H   26036.93825245  .00002365  00000-0  24363-4 0  9992
2 60190  53.1577 318.0327 0000915 106.0307 254.0812 15.69718339 91545
Epoch: 2026-02-05T22:31Z
TLE epoch observation values (Epoch: 2026-02-05T22:31:05.011Z)
Latitude
-0.00001°
Longitude
-155.82149°
Altitude
360.787 km
Speed
7.694 km/s
True Right ascension
21h 12m 07s
True Declination
0° 00' 00"
Sunlit
Object was in daylight at epoch
Visualization orbit readout
Latitude
Unknown
Longitude
Unknown
Altitude
Unknown
Speed
Unknown
Apparent Right ascension
Unknown
Apparent Declination
Unknown
Sunlit
N/A
Visualization observer readout
Local Sidereal Time
07:16:46
Azimuth
Unknown
Elevation
Unknown
Doppler factor
Unknown
Orbital elements
Apogee altitude
360.58 km
Perigee altitude
359.347 km
Semi-major axis
6,738.101 km
Eccentricity
0.00009
Inclination
53.1577°
RAAN
318.0327°
Arg. of periapsis
106.0307°
True anomaly
254.07112°
Mean anomaly
254.0812°
Eccentric anomaly
254.07616°
Mean motion
3.92407 °/min
Orbital period
91.74 mins
BSTAR
0.000024363
Loading maneuver chart data...
Computing Atmospheric mass density...
Loading historical data...
Loading historical data...
Loading historical data...
Loading historical data...
Loading historical data...
Loading historical data...
Loading historical data...

Documentation

Showing up to 5 results
|